Terrell, TX

5:38 PM CST on December 16, 2017 (GMT -0600)
Terrell Municipal

Weather History for KTRL - December, 2012

Change the Weather History Date:

Tuesday, December 11, 2012

  Actual Average (KGVT) Record (KGVT)
Temperature  
Mean Temperature 34 °F -  
Max Temperature 50 °F 55 °F 78 °F (1996)
Min Temperature 19 °F 39 °F 19 °F (2012)
Degree Days  
Heating Degree Days 30    
Moisture  
Dew Point 13 °F    
Average Humidity 50    
Maximum Humidity 81    
Minimum Humidity 15    
Precipitation  
Precipitation 0.00 in - - ()
Sea Level Pressure  
Sea Level Pressure 30.19 in    
Wind  
Wind Speed 1 mph (NE)    
Max Wind Speed 7 mph    
Max Gust Speed -    
Visibility 10 miles    
Events      
Averages and records for this station are not official NWS values.
T = Trace of Precipitation, MM = Missing Value Source: NWS Daily Summary

Daily Weather History Graph

Daily Weather History Graph

Search for Another Location

Airport or City:

Trip Planner

Search our weather history database for the weather conditions in past years. The results will help you decide how hot, cold, wet, or windy it might be!

Date:

Astronomy

Dec. 11, 2012 Rise Set
Actual Time 7:17 AM CST 5:19 PM CST
Civil Twilight 6:50 AM CST 5:46 PM CST
Nautical Twilight 6:19 AM CST 6:17 PM CST
Astronomical Twilight 5:49 AM CST 6:47 PM CST
Moon 5:16 AM CST (12/11) 3:57 PM CST (12/11)
Length of Visible Light 10h 56m
Length of Day
10h 02m
Waning Crescent, 4% of the Moon is Illuminated
Dec 11
Waning Crescent
Dec 13
New
Dec 19
First Quarter
Dec 28
Full
Jan 4
Last Quarter

Hourly Weather History & Observations

Time (CST) Temp. Windchill Dew Point Humidity Pressure Visibility Wind Dir Wind Speed Gust Speed Precip Events Conditions
12:53 AM 28.9 °F - 17.1 °F 61% 30.14 in 10.0 mi Calm Calm - N/A   Clear
1:53 AM 26.1 °F - 17.1 °F 69% 30.14 in 10.0 mi Calm Calm - N/A   Clear
2:53 AM 23.0 °F - 17.1 °F 78% 30.14 in 10.0 mi Calm Calm - N/A   Clear
3:53 AM 21.0 °F 16.2 °F 16.0 °F 81% 30.14 in 10.0 mi NNE 3.5 mph - N/A   Clear
4:53 AM 19.9 °F - 15.1 °F 81% 30.14 in 10.0 mi Calm Calm - N/A   Clear
5:53 AM 23.0 °F - 15.1 °F 72% 30.16 in 10.0 mi Calm Calm - N/A   Clear
6:53 AM 19.9 °F - 14.0 °F 78% 30.19 in 10.0 mi Calm Calm - N/A   Clear
7:53 AM 21.9 °F - 16.0 °F 78% 30.21 in 10.0 mi Calm Calm - N/A   Clear
8:53 AM 30.9 °F - 19.9 °F 64% 30.23 in 10.0 mi Calm Calm - N/A   Clear
9:53 AM 37.9 °F 32.7 °F 15.1 °F 39% 30.24 in 10.0 mi ESE 6.9 mph - N/A   Clear
10:53 AM 41.0 °F 38.0 °F 15.1 °F 35% 30.24 in 10.0 mi Variable 4.6 mph - N/A   Clear
11:53 AM 44.1 °F - 12.9 °F 28% 30.22 in 10.0 mi Calm Calm - N/A   Clear
12:53 PM 46.0 °F - 12.0 °F 25% 30.18 in 10.0 mi Calm Calm - N/A   Clear
1:53 PM 48.0 °F - 6.1 °F 18% 30.17 in 10.0 mi Calm Calm - N/A   Clear
2:53 PM 50.0 °F - 8.1 °F 18% 30.16 in 10.0 mi Calm Calm - N/A   Clear
3:53 PM 48.9 °F - 3.0 °F 15% 30.16 in 10.0 mi Calm Calm - N/A   Clear
4:53 PM 48.0 °F - 7.0 °F 19% 30.17 in 10.0 mi ENE 3.5 mph - N/A   Clear
5:53 PM 43.0 °F 40.3 °F 9.0 °F 25% 30.17 in 10.0 mi ENE 4.6 mph - N/A   Clear
6:53 PM 39.0 °F 36.8 °F 12.0 °F 33% 30.19 in 10.0 mi NE 3.5 mph - N/A   Clear
7:53 PM 33.1 °F 30.0 °F 12.9 °F 43% 30.22 in 10.0 mi NNE 3.5 mph - N/A   Clear
8:53 PM 30.0 °F - 14.0 °F 51% 30.23 in 10.0 mi Calm Calm - N/A   Clear
9:53 PM 28.0 °F 24.2 °F 15.1 °F 58% 30.25 in 10.0 mi NE 3.5 mph - N/A   Clear
10:53 PM 27.0 °F - 16.0 °F 63% 30.27 in 10.0 mi Calm Calm - N/A   Clear
11:53 PM 25.0 °F 20.7 °F 16.0 °F 69% 30.27 in 10.0 mi NNE 3.5 mph - N/A   Clear